Time,TemperatureF,DewpointF,PressureIn,WindDirection,WindDirectionDegrees,WindSpeedMPH,WindSpeedGustMPH,Humidity,HourlyPrecipIn,Conditions,Clouds,dailyrainin,SoftwareType,DateUTC
2013-11-03 00:05:00,49.4,47.0,29.65,SSE,156,0.0,0.0,91,0.00,,,0.00,vanprod,2013-11-03 04:05:00,
2013-11-03 00:15:00,49.1,47.0,29.66,SSE,156,0.0,0.0,91,0.00,,,0.00,vanprod,2013-11-03 04:15:00,
2013-11-03 00:25:00,48.8,46.0,29.66,SSE,156,0.0,0.0,91,0.00,,,0.00,vanprod,2013-11-03 04:25:00,
2013-11-03 00:35:00,48.5,46.0,29.66,SSE,156,0.0,0.0,91,0.00,,,0.00,vanprod,2013-11-03 04:35:00,
2013-11-03 00:45:00,48.2,46.0,29.67,SSE,156,0.0,0.0,92,0.00,,,0.00,vanprod,2013-11-03 04:45:00,
2013-11-03 00:55:00,48.0,46.0,29.67,SSE,156,1.0,0.0,92,0.00,,,0.00,vanprod,2013-11-03 04:55:00,
2013-11-03 01:05:00,48.0,46.0,29.68,SSE,156,1.0,2.0,92,0.00,,,0.00,vanprod,2013-11-03 05:05:00,
2013-11-03 01:15:00,48.0,45.0,29.69,SSE,156,1.0,0.0,91,0.00,,,0.00,vanprod,2013-11-03 05:15:00,
2013-11-03 01:25:00,48.0,45.0,29.69,SSE,156,0.0,0.0,91,0.00,,,0.00,vanprod,2013-11-03 05:25:00,
2013-11-03 01:35:00,48.2,45.0,29.70,SSE,156,0.0,0.0,90,0.00,,,0.00,vanprod,2013-11-03 05:35:00,
2013-11-03 01:45:00,48.2,45.0,29.71,SSE,156,0.0,0.0,90,0.00,,,0.00,vanprod,2013-11-03 05:45:00,
2013-11-03 01:55:00,48.3,45.0,29.71,SSE,156,0.0,0.0,90,0.00,,,0.00,vanprod,2013-11-03 05:55:00,
2013-11-03 01:05:00,48.3,45.0,29.72,SSE,156,0.0,0.0,90,0.00,,,0.00,vanprod,2013-11-03 06:05:00,
2013-11-03 01:15:00,48.3,45.0,29.73,SSE,156,1.0,2.0,88,0.00,,,0.00,vanprod,2013-11-03 06:15:00,
2013-11-03 01:25:00,48.2,44.0,29.73,SSE,156,1.0,2.0,86,0.00,,,0.00,vanprod,2013-11-03 06:25:00,
2013-11-03 01:35:00,47.9,43.0,29.73,SSE,156,2.0,3.0,84,0.00,,,0.00,vanprod,2013-11-03 06:35:00,
2013-11-03 01:45:00,47.1,42.0,29.75,SSE,156,4.0,4.0,82,0.00,,,0.00,vanprod,2013-11-03 06:45:00,
2013-11-03 01:55:00,46.2,42.0,29.75,SSE,156,3.0,3.0,84,0.00,,,0.00,vanprod,2013-11-03 06:55:00,
2013-11-03 02:05:00,45.1,41.0,29.76,SSE,156,3.0,3.0,87,0.00,,,0.01,vanprod,2013-11-03 07:05:00,
2013-11-03 02:15:00,44.2,41.0,29.77,SSE,156,2.0,0.0,89,0.00,,,0.01,vanprod,2013-11-03 07:15:00,
2013-11-03 02:25:00,43.5,41.0,29.77,NNE,21,3.0,3.0,90,0.00,,,0.02,vanprod,2013-11-03 07:25:00,
2013-11-03 02:35:00,43.2,41.0,29.77,NNE,21,2.0,0.0,91,0.00,,,0.02,vanprod,2013-11-03 07:35:00,
2013-11-03 02:45:00,42.9,41.0,29.78,NNE,21,1.0,1.0,92,0.00,,,0.02,vanprod,2013-11-03 07:45:00,
2013-11-03 02:55:00,42.6,40.0,29.78,NNE,27,1.0,0.0,92,0.00,,,0.02,vanprod,2013-11-03 07:55:00,
2013-11-03 03:05:00,42.3,40.0,29.78,NNE,27,2.0,0.0,91,0.00,,,0.02,vanprod,2013-11-03 08:05:00,
2013-11-03 03:15:00,42.3,40.0,29.79,NNE,27,1.0,0.0,91,0.00,,,0.02,vanprod,2013-11-03 08:15:00,
2013-11-03 03:25:00,42.5,40.0,29.79,NNE,27,1.0,0.0,92,0.00,,,0.02,vanprod,2013-11-03 08:25:00,
2013-11-03 03:35:00,42.5,40.0,29.80,NNE,27,1.0,0.0,91,0.00,,,0.02,vanprod,2013-11-03 08:35:00,
2013-11-03 03:45:00,42.5,40.0,29.82,NNE,27,0.0,0.0,91,0.00,,,0.02,vanprod,2013-11-03 08:45:00,
2013-11-03 03:55:00,42.6,40.0,29.82,SSW,202,0.0,0.0,91,0.00,,,0.02,vanprod,2013-11-03 08:55:00,
2013-11-03 04:05:00,42.6,40.0,29.82,SSW,202,2.0,5.0,90,0.00,,,0.02,vanprod,2013-11-03 09:05:00,
2013-11-03 04:15:00,42.5,39.0,29.83,SSW,202,1.0,0.0,88,0.00,,,0.02,vanprod,2013-11-03 09:15:00,
2013-11-03 04:25:00,42.6,39.0,29.83,SSW,202,1.0,0.0,88,0.00,,,0.02,vanprod,2013-11-03 09:25:00,
2013-11-03 04:35:00,42.6,39.0,29.84,SSW,202,1.0,1.0,88,0.00,,,0.02,vanprod,2013-11-03 09:35:00,
2013-11-03 04:45:00,42.6,39.0,29.84,SSW,202,1.0,0.0,87,0.00,,,0.02,vanprod,2013-11-03 09:45:00,
2013-11-03 04:55:00,42.6,39.0,29.84,SSW,202,0.0,0.0,87,0.00,,,0.02,vanprod,2013-11-03 09:55:00,
2013-11-03 05:05:00,42.6,39.0,29.86,SSW,202,2.0,0.0,86,0.00,,,0.02,vanprod,2013-11-03 10:05:00,
2013-11-03 05:15:00,42.6,39.0,29.86,SSW,202,1.0,1.0,86,0.00,,,0.02,vanprod,2013-11-03 10:15:00,
2013-11-03 05:25:00,42.3,38.0,29.86,SSW,202,2.0,0.0,85,0.00,,,0.02,vanprod,2013-11-03 10:25:00,
2013-11-03 05:35:00,42.2,37.0,29.88,ENE,74,3.0,6.0,82,0.00,,,0.02,vanprod,2013-11-03 10:35:00,
2013-11-03 05:45:00,42.2,37.0,29.89,ENE,74,3.0,3.0,81,0.00,,,0.02,vanprod,2013-11-03 10:45:00,
2013-11-03 05:55:00,42.2,37.0,29.89,ENE,74,1.0,1.0,81,0.00,,,0.02,vanprod,2013-11-03 10:55:00,
2013-11-03 06:05:00,42.2,37.0,29.90,NE,52,1.0,0.0,82,0.00,,,0.02,vanprod,2013-11-03 11:05:00,
2013-11-03 06:15:00,42.2,37.0,29.91,NE,52,1.0,5.0,81,0.00,,,0.02,vanprod,2013-11-03 11:15:00,
2013-11-03 06:25:00,42.2,37.0,29.91,NE,52,0.0,0.0,81,0.00,,,0.02,vanprod,2013-11-03 11:25:00,
2013-11-03 06:35:00,42.1,35.0,29.92,NE,52,1.0,0.0,77,0.00,,,0.02,vanprod,2013-11-03 11:35:00,
2013-11-03 06:45:00,42.1,35.0,29.93,NE,52,1.0,0.0,77,0.00,,,0.02,vanprod,2013-11-03 11:45:00,
2013-11-03 06:55:00,42.1,35.0,29.93,NE,52,1.0,3.0,77,0.00,,,0.02,vanprod,2013-11-03 11:55:00,
2013-11-03 07:05:00,41.9,34.0,29.93,NE,52,2.0,0.0,74,0.00,,,0.02,vanprod,2013-11-03 12:05:00,
2013-11-03 07:15:00,41.8,35.0,29.95,NE,52,1.0,1.0,76,0.00,,,0.02,vanprod,2013-11-03 12:15:00,
2013-11-03 07:25:00,41.6,34.0,29.95,NE,53,2.0,2.0,73,0.00,,,0.02,vanprod,2013-11-03 12:25:00,
2013-11-03 07:35:00,41.8,34.0,29.96,NE,53,2.0,0.0,73,0.00,,,0.02,vanprod,2013-11-03 12:35:00,
2013-11-03 07:45:00,41.8,34.0,29.96,NE,53,1.0,1.0,73,0.00,,,0.02,vanprod,2013-11-03 12:45:00,
2013-11-03 07:55:00,41.9,33.0,29.96,ENE,60,1.0,3.0,71,0.00,,,0.02,vanprod,2013-11-03 12:55:00,
2013-11-03 08:05:00,41.9,33.0,29.98,ENE,60,2.0,2.0,70,0.00,,,0.02,vanprod,2013-11-03 13:05:00,
2013-11-03 08:15:00,42.1,33.0,29.99,ENE,60,2.0,0.0,71,0.00,,,0.02,vanprod,2013-11-03 13:15:00,
2013-11-03 08:25:00,42.1,34.0,29.99,ENE,61,1.0,1.0,72,0.00,,,0.02,vanprod,2013-11-03 13:25:00,
2013-11-03 08:35:00,41.9,33.0,29.99,ENE,61,2.0,0.0,69,0.00,,,0.02,vanprod,2013-11-03 13:35:00,
2013-11-03 08:45:00,41.9,33.0,30.00,ENE,61,1.0,4.0,69,0.00,,,0.02,vanprod,2013-11-03 13:45:00,
2013-11-03 08:55:00,41.9,32.0,30.00,ENE,61,2.0,2.0,68,0.00,,,0.02,vanprod,2013-11-03 13:55:00,
2013-11-03 09:05:00,41.9,31.0,30.00,ENE,61,2.0,2.0,66,0.00,,,0.02,vanprod,2013-11-03 14:05:00,
2013-11-03 09:15:00,42.1,32.0,30.01,ENE,61,3.0,3.0,67,0.00,,,0.02,vanprod,2013-11-03 14:15:00,
2013-11-03 09:25:00,41.8,30.0,30.01,NE,55,4.0,4.0,63,0.00,,,0.02,vanprod,2013-11-03 14:25:00,
2013-11-03 09:35:00,41.9,32.0,30.01,NE,55,2.0,2.0,67,0.00,,,0.02,vanprod,2013-11-03 14:35:00,
2013-11-03 09:45:00,42.2,31.0,30.02,NE,55,2.0,3.0,64,0.00,,,0.02,vanprod,2013-11-03 14:45:00,
2013-11-03 09:55:00,42.3,31.0,30.02,North,11,2.0,3.0,65,0.00,,,0.02,vanprod,2013-11-03 14:55:00,
2013-11-03 10:05:00,42.3,32.0,30.03,North,11,2.0,2.0,66,0.00,,,0.02,vanprod,2013-11-03 15:05:00,
2013-11-03 10:15:00,42.5,35.0,30.04,North,11,2.0,2.0,74,0.00,,,0.02,vanprod,2013-11-03 15:15:00,
2013-11-03 10:25:00,42.1,35.0,30.04,NNE,24,2.0,2.0,77,0.00,,,0.02,vanprod,2013-11-03 15:25:00,
2013-11-03 10:35:00,41.6,36.0,30.04,NNE,24,2.0,0.0,81,0.00,,,0.02,vanprod,2013-11-03 15:35:00,
2013-11-03 10:45:00,41.2,36.0,30.05,NNE,24,2.0,0.0,80,0.00,,,0.02,vanprod,2013-11-03 15:45:00,
2013-11-03 10:55:00,41.1,34.0,30.05,NNE,24,1.0,3.0,77,0.00,,,0.02,vanprod,2013-11-03 15:55:00,
2013-11-03 11:05:00,41.2,35.0,30.05,NNE,24,2.0,4.0,77,0.00,,,0.02,vanprod,2013-11-03 16:05:00,
2013-11-03 11:15:00,40.9,34.0,30.05,NNE,24,2.0,0.0,75,0.00,,,0.02,vanprod,2013-11-03 16:15:00,
2013-11-03 11:25:00,41.1,33.0,30.05,NNE,24,1.0,2.0,72,0.00,,,0.02,vanprod,2013-11-03 16:25:00,
2013-11-03 11:35:00,41.1,32.0,30.05,NNE,24,1.0,0.0,71,0.00,,,0.02,vanprod,2013-11-03 16:35:00,
2013-11-03 11:45:00,41.1,32.0,30.04,NNE,24,2.0,2.0,69,0.00,,,0.02,vanprod,2013-11-03 16:45:00,
2013-11-03 11:55:00,41.3,32.0,30.04,NNE,24,1.0,2.0,68,0.00,,,0.02,vanprod,2013-11-03 16:55:00,
2013-11-03 12:05:00,41.5,32.0,30.04,NNE,24,0.0,0.0,69,0.00,,,0.02,vanprod,2013-11-03 17:05:00,
2013-11-03 12:15:00,41.8,31.0,30.04,NNE,24,1.0,0.0,65,0.00,,,0.02,vanprod,2013-11-03 17:15:00,
2013-11-03 12:25:00,42.1,32.0,30.04,NNE,24,1.0,0.0,66,0.00,,,0.02,vanprod,2013-11-03 17:25:00,
2013-11-03 12:35:00,42.3,32.0,30.05,ESE,103,2.0,3.0,66,0.00,,,0.02,vanprod,2013-11-03 17:35:00,
2013-11-03 12:45:00,42.6,32.0,30.05,ESE,103,1.0,0.0,65,0.00,,,0.02,vanprod,2013-11-03 17:45:00,
2013-11-03 12:55:00,43.1,32.0,30.05,ESE,103,0.0,0.0,65,0.00,,,0.02,vanprod,2013-11-03 17:55:00,
2013-11-03 13:05:00,43.3,31.0,30.05,East,82,1.0,0.0,62,0.00,,,0.02,vanprod,2013-11-03 18:05:00,
2013-11-03 13:15:00,43.5,31.0,30.06,East,82,1.0,0.0,61,0.00,,,0.02,vanprod,2013-11-03 18:15:00,
2013-11-03 13:25:00,43.8,31.0,30.06,East,82,1.0,0.0,60,0.00,,,0.02,vanprod,2013-11-03 18:25:00,
2013-11-03 13:35:00,44.2,31.0,30.06,East,94,1.0,1.0,59,0.00,,,0.02,vanprod,2013-11-03 18:35:00,
2013-11-03 13:45:00,44.5,32.0,30.06,East,94,1.0,1.0,62,0.00,,,0.02,vanprod,2013-11-03 18:45:00,
2013-11-03 13:55:00,44.5,32.0,30.06,ENE,57,1.0,0.0,61,0.00,,,0.02,vanprod,2013-11-03 18:55:00,
2013-11-03 14:05:00,44.6,31.0,30.07,ENE,57,1.0,1.0,59,0.00,,,0.02,vanprod,2013-11-03 19:05:00,
2013-11-03 14:15:00,44.9,31.0,30.07,ENE,57,2.0,0.0,57,0.00,,,0.02,vanprod,2013-11-03 19:15:00,
2013-11-03 14:25:00,45.1,31.0,30.07,ESE,104,0.0,0.0,58,0.00,,,0.02,vanprod,2013-11-03 19:25:00,
2013-11-03 14:35:00,45.1,31.0,30.07,ESE,104,1.0,1.0,57,0.00,,,0.02,vanprod,2013-11-03 19:35:00,
2013-11-03 14:45:00,45.1,29.0,30.08,ESE,104,2.0,3.0,54,0.00,,,0.02,vanprod,2013-11-03 19:45:00,
2013-11-03 14:55:00,45.1,29.0,30.08,ESE,104,1.0,1.0,53,0.00,,,0.02,vanprod,2013-11-03 19:55:00,
2013-11-03 15:05:00,45.2,29.0,30.08,SW,234,2.0,2.0,53,0.00,,,0.02,vanprod,2013-11-03 20:05:00,
2013-11-03 15:15:00,45.1,28.0,30.08,SW,234,2.0,3.0,51,0.00,,,0.02,vanprod,2013-11-03 20:15:00,
2013-11-03 15:25:00,44.9,27.0,30.08,ENE,60,3.0,3.0,49,0.00,,,0.02,vanprod,2013-11-03 20:25:00,
2013-11-03 15:35:00,44.6,26.0,30.09,ENE,60,2.0,3.0,47,0.00,,,0.02,vanprod,2013-11-03 20:35:00,
2013-11-03 15:45:00,44.5,25.0,30.10,ENE,60,2.0,2.0,46,0.00,,,0.02,vanprod,2013-11-03 20:45:00,
2013-11-03 15:55:00,44.1,23.0,30.10,ENE,60,2.0,0.0,43,0.00,,,0.02,vanprod,2013-11-03 20:55:00,
2013-11-03 16:05:00,43.8,26.0,30.11,ENE,60,1.0,0.0,49,0.00,,,0.02,vanprod,2013-11-03 21:05:00,
2013-11-03 16:15:00,43.3,25.0,30.12,ENE,60,1.0,0.0,49,0.00,,,0.02,vanprod,2013-11-03 21:15:00,
2013-11-03 16:25:00,42.9,25.0,30.12,ENE,60,1.0,0.0,49,0.00,,,0.02,vanprod,2013-11-03 21:25:00,
2013-11-03 16:35:00,42.5,24.0,30.13,ENE,60,2.0,0.0,47,0.00,,,0.02,vanprod,2013-11-03 21:35:00,
2013-11-03 16:45:00,41.9,26.0,30.14,ENE,60,0.0,2.0,52,0.00,,,0.02,vanprod,2013-11-03 21:45:00,
2013-11-03 16:55:00,41.3,24.0,30.14,ENE,60,0.0,1.0,50,0.00,,,0.02,vanprod,2013-11-03 21:55:00,
2013-11-03 17:05:00,40.8,24.0,30.15,South,190,0.0,0.0,50,0.00,,,0.02,vanprod,2013-11-03 22:05:00,
2013-11-03 17:15:00,40.3,25.0,30.16,South,190,0.0,0.0,53,0.00,,,0.02,vanprod,2013-11-03 22:15:00,
2013-11-03 17:25:00,39.8,24.0,30.16,South,190,1.0,0.0,53,0.00,,,0.02,vanprod,2013-11-03 22:25:00,
2013-11-03 17:35:00,39.5,23.0,30.17,South,190,1.0,1.0,51,0.00,,,0.02,vanprod,2013-11-03 22:35:00,
2013-11-03 17:45:00,39.2,23.0,30.18,South,190,2.0,5.0,52,0.00,,,0.02,vanprod,2013-11-03 22:45:00,
2013-11-03 17:55:00,38.9,22.0,30.18,South,190,2.0,2.0,50,0.00,,,0.02,vanprod,2013-11-03 22:55:00,
2013-11-03 18:05:00,38.8,22.0,30.18,South,190,1.0,0.0,51,0.00,,,0.02,vanprod,2013-11-03 23:05:00,
2013-11-03 18:15:00,38.5,22.0,30.19,South,190,1.0,2.0,52,0.00,,,0.02,vanprod,2013-11-03 23:15:00,
2013-11-03 18:25:00,38.0,20.0,30.19,South,190,1.0,5.0,49,0.00,,,0.02,vanprod,2013-11-03 23:25:00,
2013-11-03 18:35:00,37.8,21.0,30.21,South,190,1.0,1.0,50,0.00,,,0.02,vanprod,2013-11-03 23:35:00,
2013-11-03 18:45:00,37.6,22.0,30.22,South,190,1.0,0.0,53,0.00,,,0.02,vanprod,2013-11-03 23:45:00,
2013-11-03 18:55:00,37.3,22.0,30.22,South,190,1.0,0.0,54,0.00,,,0.02,vanprod,2013-11-03 23:55:00,
2013-11-03 19:05:00,37.0,21.0,30.22,South,190,1.0,0.0,53,0.00,,,0.02,vanprod,2013-11-04 00:05:00,
2013-11-03 19:15:00,36.6,22.0,30.23,South,190,1.0,1.0,54,0.00,,,0.02,vanprod,2013-11-04 00:15:00,
2013-11-03 19:25:00,36.5,22.0,30.23,South,190,1.0,0.0,55,0.00,,,0.02,vanprod,2013-11-04 00:25:00,
2013-11-03 19:35:00,36.2,21.0,30.24,South,190,0.0,0.0,54,0.00,,,0.02,vanprod,2013-11-04 00:35:00,
2013-11-03 19:45:00,35.9,22.0,30.25,South,190,0.0,0.0,56,0.00,,,0.02,vanprod,2013-11-04 00:45:00,
2013-11-03 19:55:00,35.5,22.0,30.25,ESE,105,0.0,0.0,58,0.00,,,0.02,vanprod,2013-11-04 00:55:00,
2013-11-03 20:05:00,35.2,21.0,30.25,ESE,105,1.0,0.0,55,0.00,,,0.02,vanprod,2013-11-04 01:05:00,
2013-11-03 20:15:00,35.0,20.0,30.27,ESE,105,0.0,0.0,55,0.00,,,0.02,vanprod,2013-11-04 01:15:00,
2013-11-03 20:25:00,34.7,21.0,30.27,East,88,0.0,0.0,57,0.00,,,0.02,vanprod,2013-11-04 01:25:00,
2013-11-03 20:35:00,34.6,21.0,30.28,East,88,1.0,0.0,58,0.00,,,0.02,vanprod,2013-11-04 01:35:00,
2013-11-03 20:45:00,34.3,21.0,30.29,East,88,1.0,2.0,59,0.00,,,0.02,vanprod,2013-11-04 01:45:00,
2013-11-03 20:55:00,34.1,21.0,30.29,East,87,1.0,0.0,59,0.00,,,0.02,vanprod,2013-11-04 01:55:00,
2013-11-03 21:05:00,33.8,22.0,30.30,East,87,1.0,0.0,61,0.00,,,0.02,vanprod,2013-11-04 02:05:00,
2013-11-03 21:15:00,33.5,21.0,30.30,East,87,0.0,1.0,59,0.00,,,0.02,vanprod,2013-11-04 02:15:00,
2013-11-03 21:25:00,33.4,21.0,30.30,East,87,1.0,7.0,60,0.00,,,0.02,vanprod,2013-11-04 02:25:00,
2013-11-03 21:35:00,33.4,20.0,30.31,East,87,1.0,0.0,58,0.00,,,0.02,vanprod,2013-11-04 02:35:00,
2013-11-03 21:45:00,33.2,20.0,30.32,East,87,0.0,0.0,58,0.00,,,0.02,vanprod,2013-11-04 02:45:00,
2013-11-03 21:55:00,33.1,20.0,30.32,East,87,1.0,1.0,59,0.00,,,0.02,vanprod,2013-11-04 02:55:00,
2013-11-03 22:05:00,32.9,21.0,30.32,SE,128,1.0,0.0,60,0.00,,,0.02,vanprod,2013-11-04 03:05:00,
2013-11-03 22:15:00,32.7,21.0,30.32,SE,128,0.0,0.0,61,0.00,,,0.02,vanprod,2013-11-04 03:15:00,
2013-11-03 22:25:00,32.4,20.0,30.32,SE,128,0.0,0.0,61,0.00,,,0.02,vanprod,2013-11-04 03:25:00,
2013-11-03 22:35:00,31.9,21.0,30.33,SE,128,0.0,0.0,64,0.00,,,0.02,vanprod,2013-11-04 03:35:00,
2013-11-03 22:45:00,31.5,22.0,30.33,SE,128,0.0,0.0,66,0.00,,,0.02,vanprod,2013-11-04 03:45:00,
2013-11-03 22:55:00,31.2,21.0,30.33,SE,128,0.0,0.0,66,0.00,,,0.02,vanprod,2013-11-04 03:55:00,
2013-11-03 23:05:00,30.7,21.0,30.34,SE,129,0.0,0.0,68,0.00,,,0.02,vanprod,2013-11-04 04:05:00,
2013-11-03 23:15:00,30.3,21.0,30.34,SE,129,0.0,0.0,69,0.00,,,0.02,vanprod,2013-11-04 04:15:00,
2013-11-03 23:25:00,30.0,22.0,30.34,SE,129,0.0,0.0,71,0.00,,,0.02,vanprod,2013-11-04 04:25:00,
2013-11-03 23:35:00,29.7,22.0,30.35,SE,129,0.0,0.0,74,0.00,,,0.02,vanprod,2013-11-04 04:35:00,
2013-11-03 23:45:00,29.3,22.0,30.35,SE,129,0.0,0.0,73,0.00,,,0.02,vanprod,2013-11-04 04:45:00,
2013-11-03 23:55:00,29.1,22.0,30.35,SE,129,0.0,0.0,74,0.00,,,0.02,vanprod,2013-11-04 04:55:00,